Retour au catalogue

CZ-6A DEB

ActifPO
NORAD 60685·DEBRIS·🇨🇳 China

Lancé Aug 6, 2024 depuis Taiyuan Satellite Launch Center

Loading…

Prochains Passages (prochaines 24 heures)

TLE

FraisSource: Space-Track

Époque: Sep 14, 2026, 06:59 UTC

1 60685U 24140CN  26257.29116566  .00001787  00000-0  45152-3 0  9997
2 60685  88.9959 260.7194 0077021   6.0196 354.1917 14.48848361110754

Suivez CZ-6A DEB en temps réel avec AllMySat

Download on the App Store